Weather History for ROIG - March, 2014

Change the Weather History Date:

Tuesday, March 11, 2014

  Actual Average Record
Temperature  
Mean Temperature 68 °F -  
Max Temperature 73 °F 73 °F - ()
Min Temperature 62 °F 66 °F - ()
Cooling Degree Days 2    
Growing Degree Days 18 (Base 50)    
Moisture  
Dew Point 52 °F    
Average Humidity 52    
Maximum Humidity 63    
Minimum Humidity 38    
Precipitation  
Precipitation 0.00 in - - ()
Sea Level Pressure  
Sea Level Pressure 30.24 in    
Wind  
Wind Speed 10 mph ()    
Max Wind Speed 17 mph    
Max Gust Speed -    
Visibility 7.1 miles    
Events      
T = Trace of Precipitation, MM = Missing Value Source: Averaged Metar Reports

Daily Weather History Graph

Daily Weather History Graph

Search for Another Location

Airport or City:

Trip Planner

Search our weather history database for the weather conditions in past years. The results will help you decide how hot, cold, wet, or windy it might be!

Date:

Astronomy

Mar. 11, 2014 Rise Set
Actual Time 6:56 AM JST 6:50 PM JST
Civil Twilight 6:34 AM JST 7:13 PM JST
Nautical Twilight 6:07 AM JST 7:39 PM JST
Astronomical Twilight 5:41 AM JST 8:05 PM JST
Moon 2:18 PM JST (3/11) 3:01 AM JST (3/11)
Length of Visible Light 12h 38m
Length of Day
11h 53m
Waxing Gibbous, 73% of the Moon is Illuminated
Mar 11
Waxing Gibbous
Mar 17
Full
Mar 24
Last Quarter
Mar 31
New
Apr 7
First Quarter

Hourly Weather History & Observations

Time (JST) Temp. Dew Point Humidity Pressure Visibility Wind Dir Wind Speed Gust Speed Precip Events Conditions
12:00 AM 63 °F 47 °F 46% 30.29 in - East 10.4 mph - -  
1:00 AM 63 °F 48 °F 48% 30.29 in - ENE 8.1 mph - -  
2:00 AM 63 °F 49 °F 50% 30.27 in - ENE 9.2 mph - -  
3:00 AM 63 °F 50 °F 52% 30.27 in 6 mi ENE 8.1 mph - -   Scattered Clouds
4:00 AM 64 °F 49 °F 48% 30.26 in - East 6.9 mph - -  
5:00 AM 64 °F 52 °F 55% 30.23 in - East 10.4 mph - -  
6:00 AM 63 °F 51 °F 57% 30.25 in 6 mi East 6.9 mph - -   Scattered Clouds
6:00 AM 62.6 °F 50.0 °F 63% 30.24 in 6.2 mi East 10.4 mph - N/A   Mostly Cloudy
7:00 AM 62 °F 52 °F 60% 30.27 in - ENE 9.2 mph - -  
7:00 AM 62.6 °F 50.0 °F 63% 30.24 in 6.2 mi ENE 11.5 mph - N/A   Mostly Cloudy
8:00 AM 65 °F 51 °F 52% 30.28 in - East 10.4 mph - -  
8:00 AM 64.4 °F 50.0 °F 59% 30.27 in 6.2 mi East 11.5 mph - N/A   Mostly Cloudy
9:00 AM 66 °F 52 °F 50% 30.28 in 6 mi East 12.7 mph - -   Scattered Clouds
9:00 AM 66.2 °F 50.0 °F 56% 30.27 in 6.2 mi East 13.8 mph - N/A   Scattered Clouds
10:00 AM 69 °F 53 °F 46% 30.28 in - East 13.8 mph - -  
10:00 AM 68.0 °F 51.8 °F 56% 30.27 in 6.2 mi East 13.8 mph - N/A   Partly Cloudy
11:00 AM 70 °F 53 °F 44% 30.28 in - East 12.7 mph - -  
11:00 AM 69.8 °F 51.8 °F 53% 30.27 in 6.2 mi East 13.8 mph - N/A   Scattered Clouds
12:00 PM 70 °F 52 °F 43% 30.27 in 9 mi East 12.7 mph - -   Scattered Clouds
12:00 PM 69.8 °F 50.0 °F 49% 30.24 in 6.2 mi East 12.7 mph - N/A   Mostly Cloudy
1:00 PM 73 °F 53 °F 38% 30.25 in - ESE 15.0 mph - -  
1:00 PM 69.8 °F 50.0 °F 49% 30.24 in 6.2 mi East 13.8 mph - N/A   Mostly Cloudy
2:00 PM 71 °F 54 °F 44% 30.22 in - ESE 13.8 mph - -  
2:00 PM 69.8 °F 50.0 °F 49% 30.21 in 6.2 mi ESE 13.8 mph - N/A   Mostly Cloudy
3:00 PM 71 °F 54 °F 45% 30.19 in 12 mi East 15.0 mph - -   Scattered Clouds
3:00 PM 69.8 °F 51.8 °F 53% 30.18 in 6.2 mi ESE 13.8 mph - N/A   Mostly Cloudy
4:00 PM 70 °F 54 °F 47% 30.19 in - ESE 13.8 mph - -  
4:00 PM 68.0 °F 51.8 °F 56% 30.18 in 6.2 mi ESE 12.7 mph - N/A   Mostly Cloudy
5:00 PM 69 °F 54 °F 50% 30.20 in - East 13.8 mph - -  
5:00 PM 68.0 °F 50.0 °F 52% 30.18 in 6.2 mi East 12.7 mph - N/A   Scattered Clouds
6:00 PM 68 °F 54 °F 52% 30.19 in 12 mi ESE 15.0 mph - -   Scattered Clouds
6:00 PM 68.0 °F 51.8 °F 56% 30.18 in 6.2 mi ESE 12.7 mph - N/A   Mostly Cloudy
7:00 PM 68 °F 54 °F 51% 30.20 in - ESE 13.8 mph - -  
7:00 PM 68.0 °F 51.8 °F 56% 30.18 in 6.2 mi ESE 11.5 mph - N/A   Mostly Cloudy
8:00 PM 67 °F 54 °F 55% 30.22 in - ESE 12.7 mph - -  
8:00 PM 66.2 °F 51.8 °F 60% 30.21 in 6.2 mi ESE 11.5 mph - N/A   Mostly Cloudy
9:00 PM 68 °F 55 °F 55% 30.22 in 12 mi ESE 16.1 mph - -   Scattered Clouds
10:00 PM 68 °F 56 °F 56% 30.23 in - ESE 17.3 mph - -  
11:00 PM 68 °F 57 °F 58% 30.22 in - ESE 16.1 mph - -